Weather History for Marathon, FL

Change the Weather History Date:

Thursday, November 3, 2011

  Actual Average Record
Temperature  
Mean Temperature 76 °F 77 °F  
Max Temperature 82 °F 82 °F 86 °F (2002)
Min Temperature 70 °F 73 °F 64 °F (1999)
Degree Days  
Heating Degree Days 0 0  
Month to date heating degree days 0 0  
Since 1 July heating degree days 0 0  
Cooling Degree Days 11 12  
Month to date cooling degree days 39 38  
Year to date cooling degree days 4818 4477  
Growing Degree Days 27 (Base 50)    
Moisture  
Dew Point 65 °F    
Average Humidity 69    
Maximum Humidity 84    
Minimum Humidity 54    
Precipitation  
Precipitation 0.00 in 0.15 in 1.79 in (2010)
Month to date precipitation 0.00 0.47  
Year to date precipitation 35.51 41.80  
Snow  
Snow 0.00 in - - ()
Month to date snowfall 0.0  
Since 1 July snowfall 0.0  
Since 1 September snowfall 0.0  
Snow Depth -    
Sea Level Pressure  
Sea Level Pressure 30.02 in    
Wind  
Wind Speed 8 mph (NE)    
Max Wind Speed 16 mph    
Max Gust Speed 20 mph    
Visibility 10 miles    
Events      
T = Trace of Precipitation, MM = Missing Value Source: NWS Daily Summary

Daily Weather History Graph

Daily Weather History Graph

Search for Another Location

Airport:

Trip Planner

Search our weather history database for the weather conditions in past years. The results will help you decide how hot, cold, wet, or windy it might be!

Date:

Astronomy

Nov. 03, 2011 Rise Set
Actual Time 7:32 AM EDT 6:42 PM EDT
Civil Twilight 7:08 AM EDT 7:06 PM EDT
Nautical Twilight 6:41 AM EDT 7:33 PM EDT
Astronomical Twilight 6:14 AM EDT 8:00 PM EDT
Moon 2:28 PM EDT (11/3) 1:24 AM EDT (11/3)
Length of Visible Light 11h 57m
Length of Day
11h 10m
First Quarter, 60% of the Moon is Illuminated
Nov 3
First Quarter
Nov 10
Full
Nov 18
Last Quarter
Nov 25
New
Dec 2
First Quarter

Hourly Weather History & Observations

Time (EDT) Temp. Heat Index Dew Point Humidity Pressure Visibility Wind Dir Wind Speed Gust Speed Precip Events Conditions
12:53 AM 75.9 °F - 64.0 °F 67% 30.07 in 10.0 mi NE 13.8 mph - N/A   Clear
1:53 AM 75.9 °F - 64.9 °F 69% 30.05 in 10.0 mi NE 10.4 mph - N/A   Clear
2:53 AM 75.0 °F - 66.0 °F 73% 30.03 in 10.0 mi NE 11.5 mph - N/A   Clear
3:53 AM 75.0 °F - 66.9 °F 76% 30.02 in 10.0 mi NE 9.2 mph - N/A   Clear
4:53 AM 75.9 °F - 64.0 °F 67% 30.03 in 10.0 mi NE 12.7 mph - N/A   Clear
5:53 AM 75.0 °F - 63.0 °F 66% 30.04 in 10.0 mi ENE 10.4 mph - N/A   Clear
6:53 AM 73.9 °F - 66.9 °F 79% 30.05 in 10.0 mi NE 9.2 mph - N/A   Clear
7:53 AM 73.9 °F - 66.0 °F 76% 30.06 in 10.0 mi NE 8.1 mph - N/A   Clear
8:53 AM 75.0 °F - 66.9 °F 76% 30.07 in 10.0 mi NE 9.2 mph - N/A   Clear
9:53 AM 77.0 °F - 68.0 °F 74% 30.07 in 10.0 mi NNE 10.4 mph - N/A   Clear
10:53 AM 78.1 °F - 66.9 °F 68% 30.07 in 10.0 mi NE 10.4 mph - N/A   Clear
11:53 AM 79.0 °F - 66.9 °F 66% 30.06 in 10.0 mi NE 11.5 mph - N/A   Clear
12:53 PM 81.0 °F 82.2 °F 63.0 °F 54% 30.05 in 10.0 mi NE 11.5 mph - N/A   Clear
1:53 PM 81.0 °F 81.9 °F 62.1 °F 52% 30.02 in 10.0 mi NE 10.4 mph - N/A   Clear
3:53 PM 81.0 °F 81.9 °F 62.1 °F 52% 29.98 in 10.0 mi ENE 8.1 mph - N/A   Clear
4:53 PM 80.1 °F 81.2 °F 62.1 °F 54% 29.97 in 10.0 mi NE 6.9 mph - N/A   Clear
5:53 PM 78.1 °F - 62.1 °F 58% 29.97 in 10.0 mi East 4.6 mph - N/A   Clear
6:53 PM 75.9 °F - 64.9 °F 69% 29.97 in 10.0 mi NE 4.6 mph - N/A   Clear
7:53 PM 75.9 °F - 64.9 °F 69% 29.98 in 10.0 mi East 3.5 mph - N/A   Clear
8:53 PM 75.9 °F - 66.9 °F 74% 29.99 in 10.0 mi ENE 5.8 mph - N/A   Clear
9:53 PM 75.0 °F - 66.9 °F 76% 29.99 in 10.0 mi East 3.5 mph - N/A   Clear
10:53 PM 73.0 °F - 66.9 °F 81% 29.99 in 10.0 mi ENE 3.5 mph - N/A   Clear
11:53 PM 72.0 °F - 66.0 °F 81% 29.99 in 10.0 mi Calm Calm - N/A   Clear